Medicine Lodge, KS

9:56 AM CST on December 13, 2019 (GMT -0600)
Medicine Lodge

Weather History for KP28 - October, 2019

Change the Weather History Date:

Wednesday, October 30, 2019

  Actual Average Record
Temperature  
Mean Temperature 28 °F 53 °F  
Max Temperature 35 °F 66 °F 92 °F (1968)
Min Temperature 20 °F 40 °F 9 °F (1917)
Degree Days  
Heating Degree Days 37 12  
Month to date heating degree days 360 224  
Since 1 July heating degree days 360 258  
Cooling Degree Days 0 0  
Month to date cooling degree days 23 37  
Year to date cooling degree days 1837 1768  
Moisture  
Dew Point 23 °F    
Average Humidity 78    
Maximum Humidity 92    
Minimum Humidity 63    
Precipitation  
Precipitation 0.00 in 0.08 in 4.61 in (1979)
Month to date precipitation 1.79 2.76  
Year to date precipitation 30.37 25.21  
Sea Level Pressure  
Sea Level Pressure 30.31 in    
Wind  
Wind Speed 15 mph (North)    
Max Wind Speed 25 mph    
Max Gust Speed 34 mph    
T = Trace of Precipitation, MM = Missing Value Source: NWS Daily Summary

Daily Weather History Graph

Daily Weather History Graph

Search for Another Location

Airport or City:

Astronomy

Oct. 30, 2019 Rise Set
Actual Time 7:56 AM CDT 6:38 PM CDT
Civil Twilight 7:29 AM CDT 7:05 PM CDT
Nautical Twilight 6:59 AM CDT 7:36 PM CDT
Astronomical Twilight 6:28 AM CDT 8:06 PM CDT
Moon 10:38 AM CDT (10/30) 8:50 PM CDT (10/30)
Length of Visible Light 11h 35m
Length of Day
10h 42m
Waxing Crescent, 9% of the Moon is Illuminated
Oct 30
Waxing Crescent
Nov 4
First Quarter
Nov 12
Full
Nov 19
Last Quarter
Nov 26
New

Hourly Weather History & Observations

Time (CDT) Temp. Windchill Dew Point Humidity Pressure Visibility Wind Dir Wind Speed Gust Speed Precip Events Conditions
12:56 AM 35.1 °F 25.9 °F 26.1 °F 70% 30.25 in - North 13.8 mph 20.7 mph N/A   Unknown
1:56 AM 34.0 °F 24.6 °F 27.0 °F 75% 30.25 in - North 13.8 mph 23.0 mph N/A   Unknown
2:56 AM 34.0 °F 23.4 °F 27.0 °F 75% 30.25 in - NNE 17.3 mph 25.3 mph N/A   Unknown
3:56 AM 34.0 °F 23.4 °F 27.0 °F 75% 30.24 in - North 17.3 mph 25.3 mph N/A   Unknown
5:56 AM 33.1 °F 23.4 °F 25.0 °F 72% 30.22 in - NNE 13.8 mph - N/A   Unknown
6:56 AM 33.1 °F 22.6 °F 25.0 °F 72% 30.24 in - NNE 16.1 mph 23.0 mph N/A   Unknown
7:56 AM 32.0 °F 20.8 °F 24.1 °F 73% 30.25 in - North 17.3 mph 26.5 mph N/A   Unknown
8:56 AM 30.9 °F 18.7 °F 21.9 °F 69% 30.28 in - North 19.6 mph 34.5 mph N/A   Unknown
10:56 AM 30.9 °F 18.7 °F 19.0 °F 61% 30.32 in - North 19.6 mph 32.2 mph N/A   Unknown
11:56 AM 30.9 °F 19.1 °F 19.9 °F 64% 30.33 in - North 18.4 mph 29.9 mph N/A   Unknown
12:56 PM 32.0 °F 20.1 °F 21.0 °F 64% 30.31 in - North 19.6 mph 32.2 mph N/A   Unknown
1:56 PM 32.0 °F 20.8 °F 21.0 °F 64% 30.30 in - North 17.3 mph 28.8 mph N/A   Unknown
2:56 PM 32.0 °F 20.1 °F 21.9 °F 66% 30.29 in - NNW 19.6 mph 31.1 mph N/A   Unknown
3:56 PM 30.9 °F 20.2 °F 21.9 °F 69% 30.31 in - NNW 15.0 mph 29.9 mph N/A   Unknown
5:56 PM 28.9 °F 17.7 °F 24.1 °F 82% 30.35 in - NNW 15.0 mph 28.8 mph N/A   Unknown
6:56 PM 28.0 °F 16.1 °F 23.0 °F 81% 30.37 in - NNW 16.1 mph 25.3 mph N/A   Unknown
7:56 PM 27.0 °F 17.3 °F 21.9 °F 81% 30.39 in - NNW 10.4 mph - N/A   Unknown
9:56 PM 24.1 °F 14.4 °F 19.9 °F 84% 30.41 in - NW 9.2 mph - N/A   Unknown
10:56 PM 21.9 °F 13.4 °F 19.0 °F 89% 30.42 in - NW 6.9 mph - N/A   Unknown
11:56 PM 19.9 °F 13.4 °F 18.0 °F 92% 30.41 in - NW 4.6 mph - N/A   Unknown